Home > Weather > Bellinzona > Past weeks

Flag for Switzerland Past Weather in Bellinzona, Ticino, Switzerland — Yesterday and Last 2 Weeks

Now
83 °F

Warm.


Feels Like: 85 °F
Forecast: 67 / 84 °F
Wind: 5 mph from West

Location: Locarno-Magadino

Current Time: Jul 30, 2016 at 6:59:44 PM

Latest Report: Jul 30, 2016 at 6:00 PM


Visibility: N/A

Pressure: 29.91 "Hg

Humidity: 59%

Dew Point: 67 °F

Location of BellinzonaLocation

Past Weather in Bellinzona — Graph

°F

Bellinzona Temperature Yesterday

Maximum temperature yesterday: 85 °F (at 5:00 PM)
Minimum temperature yesterday: 61 °F (at 6:00 AM)
Average temperature yesterday: 73 °F

High & Low Weather Summary for the Past Weeks

 TemperatureHumidityPressure
High89 °F (Jul 20, 5:00 PM)97% (Jul 23, 5:00 AM)30.17 "Hg (Jul 23, 5:00 AM)
Low51 °F (Jul 16, 3:00 AM)21% (Jul 16, 7:00 PM)29.90 "Hg (Jul 28, 7:00 PM)
Average72 °F70%30.02 "Hg
* Reported Jul 15 5:00 PM — Jul 30 5:00 PM, Bellinzona, Weather by CustomWeather, © 2016

Note: Actual official high and low records may vary slightly from our data, if they occured in-between our weather recording intervals... More about our weather records

Advertising

Bellinzona Weather History for the Previous 24 Hours

Scroll right to see more
 ConditionsComfort  
Time TempWeatherWind HumidityBarometerVisibility
5:00 PM
Sat, Jul 30
84 °FWarm.6 mph57%29.91 "HgN/A
4:00 PM86 °FWarm.8 mph53%29.90 "HgN/A
3:00 PM86 °FWarm.8 mph54%29.91 "HgN/A
2:00 PM84 °FWarm.10 mph56%29.93 "HgN/A
1:00 PM83 °FWarm.10 mph55%29.94 "HgN/A
12:00 PM82 °FWarm.5 mph58%29.95 "HgN/A
11:00 AM78 °FWarm.2 mph61%29.97 "HgN/A
10:00 AM75 °FMild.2 mph70%29.99 "HgN/A
9:00 AM71 °FMild.2 mph78%30.01 "HgN/A
8:00 AM70 °FMild.3 mph81%30.01 "HgN/A
7:00 AM64 °FMild.No wind96%30.02 "HgN/A
6:00 AM63 °FMild.1 mph97%30.00 "HgN/A
5:00 AM63 °FMild.1 mph97%30.00 "HgN/A
4:00 AM64 °FMild.1 mph97%30.00 "HgN/A
3:00 AM66 °FMild.No wind94%29.99 "HgN/A
2:00 AM66 °FMild.No wind95%29.99 "HgN/A
1:00 AM66 °FMild.1 mph96%29.99 "HgN/A
12:00 AM68 °FMild.1 mph93%29.98 "HgN/A
11:00 PM
Fri, Jul 29
69 °FMild.1 mph92%29.97 "HgN/A
10:00 PM72 °FMild.1 mph85%29.95 "HgN/A
9:00 PM75 °FMild.2 mph75%29.92 "HgN/A
8:00 PM81 °FWarm.5 mph61%29.90 "HgN/A
7:00 PM83 °FWarm.5 mph56%29.90 "HgN/A
6:00 PM84 °FWarm.8 mph51%29.90 "HgN/A
Weather by CustomWeather, © 2016

See weather overviewHow to use our weather pages